Location: Newark
(55.8429°N, 38.1995°E)
Time: 23:59:27
(UTC+00:00)

ISS - Pass Details

Date: 29 October 2019
Orbit: 412 x 421 km, 51.6° (Epoch: 23 November)

Event Time Altitude Azimuth Distance (km) Brightness Sun altitude
Exits shadow 02:23:57 12° 193° (SSW) 1,401 -1.3 -17.6°
Maximum altitude 02:26:00 19° 151° (SSE) 1,094 -1.4 -17.3°
Drops below altitude 10° 02:28:26 10° 106° (ESE) 1,509 0.2 -16.9°
Sets 02:30:50 0° 88° (E) 2,334 1.8 -16.6°
